• Processing (Info)

  • MPEC 2013-P79 : 2013 PD39

    The following Minor Planet Electronic Circular may be linked-to from your own Web pages, but must not otherwise be redistributed electronically.

    A form allowing access to any MPEC is at the bottom of this page.


    Read MPEC 2013-P78 Read MPEC 2013-Q01


    M.P.E.C. 2013-P79                                Issued 2013 Aug. 15, 21:58 UT
    
         The Minor Planet Electronic Circulars contain information on unusual
             minor planets and routine data on comets.  They are published
       on behalf of Commission 20 of the International Astronomical Union by the
              Minor Planet Center, Smithsonian Astrophysical Observatory,
                              Cambridge, MA 02138, U.S.A.
    
                 Prepared using the Tamkin Foundation Computer Network
    
                                  MPC@CFA.HARVARD.EDU
                URL http://www.minorplanetcenter.net/    ISSN 1523-6714
    
                                       2013 PD39
    
    Observations:
         K13P39D* C2013 08 12.45913 22 27 41.603-01 34 58.09         21.5 wLEP079F51
         K13P39D  C2013 08 12.47465 22 27 45.318-01 34 45.53         21.7 wLEP079F51
         K13P39D  C2013 08 12.50466 22 27 52.581-01 34 21.10         21.5 wLEP079F51
         K13P39D KC2013 08 13.31017 22 31 31.08 -01 23 19.7          21.6 RoEP079291
         K13P39D KC2013 08 13.31469 22 31 32.31 -01 23 15.4          21.2 RoEP079291
         K13P39D KC2013 08 14.32367422 36 21.97 -01 08 42.2          21.3 VuEP079H21
         K13P39D KC2013 08 14.33400422 36 24.90 -01 08 33.2          21.4 VuEP079H21
         K13P39D KC2013 08 14.34475122 36 27.95 -01 08 23.4          21.4 VuEP079H21
    
    Observer details:
    291 LPL/Spacewatch II.  Observer R. S. McMillan.  1.8-m f/2.7 reflector + CCD.
    F51 Pan-STARRS 1, Haleakala.  Observers N. Primak, A. Schultz. T. Goggia,
        M. Willman.  Measurer PS1 Science Consortium.  1.8-m Ritchey-Chretien
        + CCD.
    H21 Astronomical Research Observatory, Westfield.  Observer R. Holmes.
        Measurers T. Vorobjov, L. Buzzi, S. Foglia, T. Linder.  0.81-m f/4.0
        astrograph + CCD.
    
    Orbital elements:
    2013 PD39                                                Earth MOID = 0.0252 AU
    Epoch 2013 Apr. 18.0 TT = JDT 2456400.5                 MPC
    M 317.54661              (2000.0)            P               Q
    n   0.25603656     Peri.  220.92089     +0.95071815     -0.30866649
    a   2.4562245      Node   157.00783     +0.30043182     +0.89369396
    e   0.5992997      Incl.    4.30567     +0.07665320     +0.32563186
    P   3.85           H   24.1           G   0.15           U   8
    Residuals in seconds of arc
    130812 F51  0.2+  0.1+    130813 291  0.4-  0.2-    130814 H21  0.0   0.2-
    130812 F51  0.2-  0.0     130813 291  0.4+  0.3+    130814 H21  0.2+  0.0
    130812 F51  0.0   0.1-    130814 H21  0.2-  0.1+
    
    Ephemeris:
    2013 PD39                a,e,i = 2.46, 0.60, 4                   q = 0.9842
    Date    TT    R. A. (2000) Decl.     Delta      r     Elong.  Phase     V
    2013 07 16    21 26 03.2 -06 02 10   0.4043  1.3823   150.4    21.3    23.9
    ...
    2013 07 31    21 50 16.7 -03 51 32   0.2664  1.2656   157.7    17.7    22.7
    ...
    2013 08 08    22 10 59.4 -02 29 50   0.2035  1.2072   160.0    16.7    21.9
    ...
    2013 08 14    22 34 46.6 -01 12 55   0.1612  1.1659   160.1    17.2    21.4
    2013 08 15    22 39 50.3 -00 57 50   0.1547  1.1592   159.8    17.5    21.3
    2013 08 16    22 45 18.4 -00 41 55   0.1483  1.1527   159.5    17.9    21.2
    ...
    2013 08 22    23 29 28.9 +01 17 27   0.1133  1.1152   155.0    22.5    20.7
    ...
    2013 08 30    01 16 08.0 +05 17 30   0.08152 1.0707   137.0    40.0    20.4
    ...
    2013 09 14    05 29 01.7 +08 38 30   0.1021  1.0095    89.1    85.1    22.1
    
    A. U. Tomatic                (C) Copyright 2013 MPC           M.P.E.C. 2013-P79
    

    Read MPEC 2013-P78 Read MPEC 2013-Q01


    MPEC number:

    Enter an MPEC number in one of the following forms:

    • 1997-B01 (the full form)
    • J97B01 (the packed version of the full form)
    • B01 (the abbreviated form)